Wind_Speed
12 11 9 7 6 5 3 1 1 1 3 6 7 9 9 10 11 11 12 12 12 11 9 8 8 8 9 9 9 10 10 9 9 9 8 8 7 7 7 7 7 7 6 5
14 11 9 8 7 7 6 3 3 3 3 6 7 7 8 8 8 11 12 11 11 11 9 7 7 8 9 9 9 9 10 9 9 9 9 8 8 7 7 7 7 8 8 7
16 13 12 11 10 10 8 6 6 6 7 7 8 7 7 9 9 9 11 11 10 10 10 9 8 7 8 9 10 10 10 10 10 10 9 9 8 7 7 7 7 8 8 9
17 16 15 14 13 11 10 9 9 8 8 9 9 9 8 9 9 9 10 10 11 11 10 9 10 9 10 10 10 10 10 11 11 11 10 10 9 8 8 8 9 8 8 9
18 18 17 16 15 14 12 12 12 12 11 10 10 11 8 9 10 10 9 9 11 12 12 11 11 11 11 10 11 11 11 11 11 11 11 10 10 9 8 8 9 8 9 10
20 19 18 17 16 16 15 15 14 13 12 11 11 12 9 8 10 10 9 10 11 13 13 13 12 12 11 11 11 10 11 12 12 12 11 11 11 10 9 9 9 10 11 11
20 20 18 17 17 17 17 16 15 13 12 11 11 12 9 8 8 9 9 10 11 13 14 14 14 14 12 12 12 11 12 13 13 13 12 13 12 12 11 10 10 11 12 13
21 20 19 18 17 17 17 17 16 15 13 12 12 13 11 10 10 9 10 11 13 14 15 15 15 14 13 13 13 13 14 14 14 14 14 14 14 14 14 13 13 13 14 15
22 20 19 18 18 18 17 16 16 17 16 16 15 14 12 11 11 12 12 13 14 15 16 16 16 16 15 14 14 15 15 15 15 15 16 16 16 16 15 15 15 15 16 16
23 22 20 19 20 20 20 18 17 18 18 17 17 16 15 14 13 14 14 14 16 16 18 17 17 17 16 15 15 16 16 16 16 17 17 17 17 17 16 16 16 16 17 17
22 24 22 22 22 21 20 20 20 20 20 19 19 19 17 17 16 16 16 17 18 18 19 19 19 18 18 17 16 17 18 18 18 18 18 18 18 18 18 18 18 19 19 20
24 24 23 23 23 22 22 22 22 23 23 21 22 21 20 20 19 19 20 20 20 21 21 21 21 21 20 19 18 18 19 19 19 19 19 19 19 20 20 20 20 21 21 22
26 26 25 23 24 25 25 24 23 24 24 24 24 24 22 22 22 21 22 23 22 23 23 23 22 22 22 22 21 20 20 20 21 21 20 20 20 21 22 22 23 23 23 24
29 30 28 27 26 26 27 27 26 26 26 26 26 27 26 25 25 24 24 24 25 25 25 25 25 25 25 25 23 22 22 22 23 23 22 22 22 23 23 24 25 25 25 25
30 31 30 29 28 29 29 28 28 28 28 29 29 29 29 28 27 26 26 26 27 27 28 28 28 26 25 25 25 24 23 23 23 24 24 24 24 25 26 26 26 27 27 26
31 32 31 31 30 31 31 31 31 30 31 31 31 32 31 30 28 28 29 29 29 30 30 30 29 27 27 27 27 27 26 25 25 25 26 27 27 28 29 29 29 29 29 28
32 32 32 32 31 32 34 33 34 33 32 33 32 31 32 33 31 29 30 30 30 30 30 31 30 29 29 29 29 27 27 27 27 27 29 30 30 30 30 31 30 30 30 31
30 31 32 33 32 35 32 33 34 34 32 32 32 32 33 34 33 33 32 31 32 31 31 30 29 29 29 29 29 29 29 29 30 30 30 31 31 32 32 32 32 31 31 32
30 31 33 34 34 34 33 32 33 33 32 31 31 31 32 33 33 33 33 33 33 33 33 32 32 32 32 33 32 31 31 32 33 32 32 32 33 33 33 33 33 33 32 32
31 31 32 33 34 35 33 32 31 33 34 32 32 32 32 33 34 34 35 36 36 35 34 33 33 33 33 33 33 34 34 34 34 35 34 34 34 34 34 34 34 34 34 34
30 31 32 33 34 34 33 31 31 34 34 33 34 34 35 36 36 37 37 38 38 36 35 35 35 35 34 34 34 34 34 34 34 34 35 35 36 36 36 35 35 35 35 35
29 29 31 32 32 33 32 32 32 33 34 34 34 35 35 36 37 36 36 37 38 37 37 37 37 36 35 35 34 34 34 34 35 35 36 36 37 37 36 36 36 35 35 35
29 29 29 31 32 32 32 32 32 33 34 34 34 34 34 34 35 36 37 37 37 38 38 38 39 38 37 36 35 35 35 36 37 37 37 37 37 37 36 36 35 35 36 35
30 30 31 31 32 32 31 30 31 32 33 32 33 34 35 34 34 35 36 37 38 38 38 37 36 36 36 36 37 37 37 38 38 38 37 37 37 37 36 36 36 36 36 35
30 31 32 32 32 33 32 32 32 33 33 32 32 33 33 34 34 34 34 35 36 36 37 36 36 35 35 36 36 37 38 38 38 38 37 37 37 37 36 36 36 36 37 36
30 31 32 32 32 32 32 32 32 31 30 30 31 32 33 33 34 34 35 35 36 35 35 35 34 34 35 35 36 36 37 37 37 37 37 37 37 37 37 37 36 36 36 36
Wind_Direction
198 193 186 186 199 205 188 128 74 322 335 329 344 353 352 357 359 1 3 3 5 1 7 7 9 17 17 13 13 13 15 16 17 17 18 19 17 18 17 15 7 2 352 341
203 198 194 192 211 223 223 229 240 229 258 289 303 318 330 336 350 359 357 357 0 360 5 10 9 12 15 13 9 8 10 11 11 10 9 11 12 15 13 10 3 0 357 350
207 204 210 209 220 230 237 242 249 260 254 270 281 290 300 313 329 347 350 347 355 357 2 3 4 12 11 6 3 1 359 357 356 356 356 357 357 359 357 354 350 350 348 348
211 209 215 217 224 234 237 246 256 255 260 262 266 275 289 302 317 335 341 338 342 348 352 357 357 5 4 356 353 350 349 349 347 347 350 351 351 351 348 346 343 339 339 337
214 214 220 223 227 234 237 241 254 261 260 246 254 269 278 292 303 317 326 326 336 338 341 349 353 355 351 347 346 345 344 344 345 346 346 345 343 341 340 338 334 331 331 331
220 220 225 229 232 236 240 243 250 259 255 243 248 265 271 287 301 308 312 320 323 325 327 333 340 344 343 338 340 341 342 339 337 337 334 333 331 329 328 329 328 325 323 323
226 225 229 234 239 238 239 245 250 252 249 246 251 259 264 274 288 299 304 313 314 316 318 321 326 332 332 329 331 332 331 328 325 324 322 320 321 319 318 318 320 320 319 319
230 228 232 238 243 242 243 248 252 256 252 249 254 264 263 261 272 283 293 302 309 310 314 317 319 323 324 323 324 324 323 323 321 317 314 311 313 315 312 310 311 312 313 315
232 231 231 235 238 237 239 243 250 256 255 256 256 261 258 255 264 274 286 292 299 303 305 309 313 314 314 317 318 319 319 318 320 317 309 309 310 311 310 307 306 305 307 311
237 235 230 233 233 233 237 239 246 253 258 260 255 257 265 265 266 272 278 283 290 298 301 303 306 306 307 310 311 313 313 313 314 314 311 307 306 306 306 305 304 304 304 307
240 241 234 231 231 232 234 237 242 251 255 259 262 258 260 265 266 268 272 278 284 292 298 300 301 300 301 303 305 306 306 306 308 308 308 306 303 303 303 302 302 302 302 303
241 245 241 234 232 235 238 239 242 246 252 256 263 262 260 264 266 267 270 274 279 284 289 293 295 294 294 296 298 299 300 301 303 304 304 304 302 301 302 301 300 300 299 302
237 240 240 235 232 234 238 239 241 245 250 254 259 262 261 264 267 265 268 271 273 278 284 286 289 290 290 290 292 294 296 298 300 301 301 301 301 301 301 301 299 299 298 298
238 239 241 240 237 237 238 239 240 244 248 252 255 258 259 261 265 266 266 269 272 275 278 282 284 286 285 287 287 289 292 295 297 297 297 298 299 300 300 300 299 298 299 297
241 242 244 245 242 240 240 240 242 245 249 253 255 255 257 259 264 266 267 269 271 274 274 278 282 280 281 283 284 286 288 291 293 293 294 296 296 296 296 297 299 299 299 298
244 245 247 246 245 245 243 245 248 248 249 252 255 255 258 260 262 265 267 268 271 273 272 274 277 279 284 283 284 284 285 287 288 289 291 293 294 294 295 296 297 299 299 298
247 249 249 249 248 249 247 247 249 250 253 255 255 256 259 261 261 264 266 268 272 273 275 277 279 279 279 280 282 283 281 284 286 287 289 290 291 293 294 294 295 297 297 296
247 249 251 251 251 249 249 249 250 252 253 256 256 256 258 260 262 264 266 271 273 273 275 277 278 277 276 278 278 279 280 283 285 286 287 287 288 290 293 294 294 295 295 294
247 248 250 250 251 251 250 250 253 254 254 257 257 259 261 263 264 265 267 269 271 273 276 277 278 277 278 279 281 280 279 281 284 285 286 287 288 289 291 292 292 292 293 294
247 249 250 252 254 253 250 250 253 255 257 259 260 261 264 265 266 268 268 270 271 273 275 279 277 277 279 280 281 282 281 282 284 285 285 286 287 287 289 290 291 291 291 292
251 251 250 252 254 255 252 254 254 255 259 262 263 263 265 269 269 269 271 273 273 275 277 280 281 279 279 279 280 281 282 284 285 285 285 286 286 287 287 288 289 289 289 290
252 253 252 253 256 256 255 257 258 259 261 263 263 264 266 269 270 272 275 276 276 276 278 280 281 282 280 280 281 281 281 283 284 284 284 284 285 286 286 287 288 288 288 289
252 254 256 256 259 261 258 259 261 261 263 264 264 266 267 269 271 273 277 279 280 280 281 282 282 280 280 281 281 282 282 283 283 283 283 284 285 284 284 286 288 288 288 289
255 254 255 258 260 261 262 263 263 265 266 267 268 269 270 272 273 274 275 277 279 280 280 280 279 279 278 280 281 281 282 282 282 281 282 284 284 284 284 286 288 288 289 288
252 253 255 258 262 263 263 264 265 265 265 267 268 269 271 273 275 276 276 279 281 279 278 280 280 280 281 283 282 282 282 282 281 282 282 285 285 285 286 287 287 287 287 287
253 255 258 260 262 264 264 263 264 265 266 268 270 272 274 276 277 278 280 280 281 281 281 280 282 282 283 283 284 284 283 283 283 283 284 285 284 285 286 286 286 286 286 286
Height
5929 5931 5932 5933 5933 5934 5934 5933 5934 5934 5934 5934 5933 5932 5932 5931 5930 5929 5928 5927 5925 5923 5922 5920 5919 5917 5916 5915 5914 5913 5911 5910 5908 5907 5905 5904 5902 5901 5900 5899 5897 5896 5894 5893
5928 5930 5931 5931 5932 5932 5932 5932 5933 5933 5933 5933 5932 5932 5932 5931 5930 5929 5928 5926 5925 5923 5921 5920 5919 5918 5916 5915 5914 5912 5911 5909 5908 5907 5905 5904 5902 5901 5899 5898 5897 5895 5894 5892
5925 5928 5928 5929 5929 5930 5930 5931 5932 5931 5931 5931 5931 5930 5930 5929 5928 5927 5926 5925 5925 5923 5922 5920 5919 5918 5916 5915 5913 5912 5911 5909 5908 5906 5905 5903 5901 5900 5899 5897 5896 5894 5893 5891
5921 5924 5925 5926 5927 5928 5928 5929 5930 5929 5930 5929 5929 5928 5928 5927 5926 5926 5925 5924 5923 5922 5921 5920 5919 5917 5916 5914 5913 5912 5910 5909 5907 5905 5904 5902 5900 5899 5897 5896 5895 5893 5891 5890
5918 5921 5922 5923 5925 5926 5926 5927 5927 5927 5927 5928 5927 5926 5927 5925 5925 5924 5924 5923 5922 5921 5920 5919 5918 5917 5915 5914 5912 5911 5909 5907 5906 5904 5902 5901 5899 5898 5896 5894 5893 5891 5890 5888
5915 5917 5918 5920 5921 5922 5923 5924 5924 5925 5925 5925 5925 5924 5924 5923 5923 5923 5923 5922 5921 5920 5918 5918 5917 5915 5914 5913 5911 5910 5908 5906 5904 5902 5901 5899 5897 5896 5894 5893 5891 5889 5888 5886
5910 5913 5915 5916 5917 5919 5920 5921 5921 5921 5920 5921 5921 5920 5921 5921 5921 5920 5920 5919 5919 5918 5917 5915 5914 5913 5912 5911 5909 5907 5906 5904 5902 5900 5898 5897 5895 5894 5892 5891 5889 5887 5885 5883
5905 5908 5911 5912 5914 5916 5916 5917 5918 5918 5917 5918 5918 5917 5919 5918 5917 5917 5917 5916 5916 5915 5914 5913 5912 5910 5910 5908 5907 5905 5904 5902 5900 5898 5896 5894 5893 5891 5890 5888 5886 5884 5882 5880
5900 5903 5906 5907 5909 5911 5911 5912 5914 5914 5913 5913 5913 5913 5914 5914 5913 5914 5914 5913 5912 5912 5911 5910 5909 5908 5907 5906 5904 5903 5901 5899 5897 5895 5893 5891 5890 5888 5886 5885 5883 5881 5879 5877
5895 5898 5901 5903 5904 5905 5907 5908 5909 5909 5909 5909 5909 5909 5910 5910 5910 5909 5909 5909 5909 5909 5908 5907 5906 5905 5904 5902 5901 5900 5898 5896 5894 5892 5890 5888 5886 5885 5883 5881 5879 5877 5875 5873
5889 5892 5895 5897 5898 5900 5902 5903 5903 5904 5904 5904 5904 5906 5906 5906 5905 5905 5905 5905 5905 5905 5905 5904 5903 5901 5900 5898 5897 5896 5894 5893 5890 5889 5887 5885 5883 5880 5878 5876 5875 5872 5870 5868
5884 5885 5887 5891 5893 5895 5896 5897 5898 5899 5899 5900 5899 5902 5900 5900 5900 5900 5900 5900 5900 5900 5900 5900 5899 5897 5895 5894 5893 5892 5890 5888 5886 5884 5882 5880 5878 5876 5874 5872 5870 5867 5864 5863
5878 5880 5882 5885 5889 5890 5890 5891 5892 5893 5893 5894 5894 5896 5895 5894 5895 5895 5895 5895 5895 5895 5895 5894 5893 5892 5890 5889 5888 5886 5885 5883 5882 5880 5878 5876 5874 5871 5869 5867 5865 5862 5860 5857
5872 5873 5876 5879 5880 5882 5883 5885 5886 5887 5886 5887 5888 5889 5889 5889 5889 5889 5889 5889 5890 5890 5889 5888 5887 5886 5884 5882 5882 5881 5880 5878 5876 5874 5872 5870 5868 5866 5864 5861 5859 5856 5854 5851
5866 5868 5869 5872 5874 5875 5877 5878 5879 5880 5880 5881 5881 5882 5883 5883 5884 5884 5884 5884 5884 5883 5882 5881 5880 5878 5876 5876 5875 5875 5873 5872 5870 5868 5866 5864 5862 5860 5858 5855 5853 5850 5847 5845
5858 5860 5863 5865 5868 5869 5870 5871 5872 5873 5873 5874 5874 5875 5876 5876 5877 5877 5877 5877 5876 5875 5874 5873 5873 5871 5870 5869 5868 5867 5866 5865 5863 5862 5860 5858 5856 5853 5851 5848 5846 5843 5840 5837
5851 5853 5856 5858 5860 5861 5862 5864 5864 5865 5865 5866 5867 5869 5869 5869 5869 5869 5870 5869 5868 5866 5866 5865 5864 5864 5863 5862 5861 5860 5858 5857 5856 5855 5853 5850 5848 5846 5843 5841 5838 5836 5833 5830
5844 5846 5847 5849 5852 5852 5857 5856 5856 5857 5857 5859 5860 5861 5862 5862 5862 5861 5861 5860 5859 5858 5857 5856 5856 5856 5855 5854 5853 5852 5850 5849 5848 5846 5844 5842 5840 5837 5835 5833 5830 5827 5824 5821
5836 5838 5839 5840 5841 5843 5846 5847 5848 5849 5850 5851 5852 5853 5854 5854 5853 5853 5853 5852 5851 5850 5849 5848 5848 5847 5846 5845 5844 5842 5841 5840 5838 5837 5835 5833 5831 5829 5827 5824 5821 5818 5815 5812
5829 5830 5831 5832 5832 5834 5838 5839 5840 5842 5841 5843 5844 5844 5845 5845 5845 5846 5844 5843 5842 5841 5841 5840 5839 5838 5836 5836 5835 5834 5832 5831 5829 5828 5826 5824 5822 5820 5818 5815 5812 5809 5806 5803
5821 5822 5823 5823 5824 5825 5829 5830 5832 5834 5834 5835 5835 5836 5836 5836 5836 5836 5835 5834 5833 5832 5832 5831 5830 5829 5827 5826 5825 5824 5823 5821 5820 5818 5816 5814 5812 5810 5807 5805 5802 5799 5796 5794
5813 5814 5815 5816 5817 5820 5821 5822 5823 5824 5825 5826 5826 5826 5827 5827 5827 5826 5825 5824 5823 5822 5822 5821 5820 5818 5817 5816 5815 5814 5813 5812 5809 5807 5805 5803 5801 5799 5796 5794 5791 5788 5786 5783
5805 5807 5807 5809 5811 5811 5812 5813 5814 5815 5815 5816 5816 5817 5817 5817 5817 5817 5816 5816 5814 5813 5812 5811 5810 5809 5808 5806 5805 5804 5803 5801 5799 5796 5794 5793 5790 5787 5785 5783 5781 5778 5775 5773
5797 5798 5800 5801 5801 5803 5804 5805 5805 5806 5806 5807 5806 5807 5807 5806 5807 5807 5807 5806 5805 5803 5802 5800 5799 5798 5797 5796 5794 5792 5791 5789 5787 5785 5783 5781 5779 5777 5775 5773 5771 5768 5766 5763
5790 5791 5791 5792 5794 5794 5795 5796 5796 5797 5797 5797 5797 5797 5797 5797 5797 5797 5796 5795 5794 5792 5792 5790 5789 5787 5786 5784 5783 5781 5779 5776 5775 5772 5771 5770 5767 5765 5763 5762 5760 5757 5755 5752
5782 5783 5783 5784 5785 5785 5786 5787 5787 5787 5787 5787 5788 5788 5787 5787 5787 5786 5785 5784 5783 5782 5780 5779 5777 5776 5774 5773 5770 5769 5767 5764 5762 5761 5760 5758 5756 5754 5753 5750 5749 5746 5744 5741